TimeMST,TemperatureF,Dew PointF,Humidity,Sea Level PressureIn,VisibilityMPH,Wind Direction,Wind SpeedMPH,Gust SpeedMPH,PrecipitationIn,Events,Conditions,WindDirDegrees,DateUTC
12:53 AM,39.9,9.0,28,30.12,10.0,WSW,23.0,29.9,N/A,,Clear,240,2013-01-19 07:53:00
1:53 AM,39.9,8.1,27,30.14,10.0,SW,28.8,42.6,N/A,,Clear,230,2013-01-19 08:53:00
2:53 AM,37.9,8.1,29,30.15,10.0,SW,35.7,44.9,N/A,,Clear,220,2013-01-19 09:53:00
3:53 AM,37.9,8.1,29,30.16,10.0,SW,32.2,41.4,N/A,,Clear,220,2013-01-19 10:53:00
4:53 AM,35.1,8.1,33,30.18,10.0,SW,33.4,47.2,N/A,,Clear,220,2013-01-19 11:53:00
5:53 AM,36.0,8.1,31,30.19,10.0,SW,31.1,39.1,N/A,,Clear,230,2013-01-19 12:53:00
6:53 AM,35.1,7.0,31,30.18,10.0,SW,33.4,48.3,N/A,,Clear,220,2013-01-19 13:53:00
7:53 AM,34.0,7.0,32,30.22,10.0,SW,31.1,42.6,N/A,,Clear,220,2013-01-19 14:53:00
8:53 AM,34.0,7.0,32,30.24,10.0,SW,34.5,46.0,N/A,,Clear,220,2013-01-19 15:53:00
9:53 AM,36.0,8.1,31,30.26,10.0,SW,31.1,41.4,N/A,,Clear,220,2013-01-19 16:53:00
10:53 AM,37.0,8.1,30,30.27,10.0,SW,34.5,42.6,N/A,,Clear,230,2013-01-19 17:53:00
11:53 AM,39.9,8.1,27,30.25,10.0,SW,31.1,38.0,N/A,,Clear,230,2013-01-19 18:53:00
12:53 PM,42.1,9.0,26,30.22,10.0,SW,27.6,35.7,N/A,,Clear,230,2013-01-19 19:53:00
1:53 PM,42.1,9.0,26,30.21,10.0,SW,25.3,34.5,N/A,,Clear,230,2013-01-19 20:53:00
2:53 PM,41.0,10.0,28,30.19,10.0,SSW,33.4,40.3,N/A,,Clear,210,2013-01-19 21:53:00
3:53 PM,41.0,10.0,28,30.20,10.0,SW,25.3,38.0,N/A,,Clear,230,2013-01-19 22:53:00
4:53 PM,41.0,9.0,27,30.19,10.0,SW,29.9,40.3,N/A,,Clear,230,2013-01-19 23:53:00
5:53 PM,41.0,10.0,28,30.17,10.0,SW,28.8,39.1,N/A,,Clear,220,2013-01-20 00:53:00
6:17 PM,39.2,10.4,31,30.13,10.0,West,15.0,29.9,N/A,,Clear,280,2013-01-20 01:17:00
6:53 PM,39.9,10.0,29,30.18,10.0,WSW,15.0,40.3,N/A,,Clear,240,2013-01-20 01:53:00
7:53 PM,39.0,10.9,32,30.18,10.0,West,24.2,38.0,N/A,,Partly Cloudy,260,2013-01-20 02:53:00
8:53 PM,39.0,12.0,33,30.19,10.0,WSW,25.3,41.4,N/A,,Clear,250,2013-01-20 03:53:00
9:53 PM,39.0,12.0,33,30.19,10.0,WSW,28.8,40.3,N/A,,Clear,250,2013-01-20 04:53:00
10:53 PM,43.0,10.0,26,30.17,10.0,SW,34.5,40.3,N/A,,Clear,230,2013-01-20 05:53:00
11:53 PM,41.0,10.0,28,30.16,10.0,SW,29.9,38.0,N/A,,Clear,230,2013-01-20 06:53:00